Weather History for Lee's Summit, MO

Change the Weather History Date:

Sunday, December 16, 2012

  Actual Average (KMKC) Record (KMKC)
Temperature  
Mean Temperature 38 °F -  
Max Temperature 42 °F 39 °F 68 °F (2006)
Min Temperature 33 °F 23 °F 3 °F (2000)
Degree Days  
Heating Degree Days 28    
Moisture  
Dew Point 35 °F    
Average Humidity 94    
Maximum Humidity 100    
Minimum Humidity 85    
Precipitation  
Precipitation 0.00 in - - ()
Sea Level Pressure  
Sea Level Pressure 29.74 in    
Wind  
Wind Speed 4 mph (NNW)    
Max Wind Speed 8 mph    
Max Gust Speed -    
Visibility 3 miles    
Events Fog    
Averages and records for this station are not official NWS values.
T = Trace of Precipitation, MM = Missing Value Source: NWS Daily Summary

Daily Weather History Graph

Daily Weather History Graph

Search for Another Location

Airport:

Trip Planner

Search our weather history database for the weather conditions in past years. The results will help you decide how hot, cold, wet, or windy it might be!

Date:

Astronomy

Dec. 16, 2012 Rise Set
Actual Time 7:30 AM CST 4:56 PM CST
Civil Twilight 7:00 AM CST 5:26 PM CST
Nautical Twilight 6:26 AM CST 6:00 PM CST
Astronomical Twilight 5:54 AM CST 6:32 PM CST
Moon 10:05 AM CST (12/16) 9:10 PM CST (12/16)
Length of Visible Light 10h 26m
Length of Day
9h 26m
Waxing Crescent, 16% of the Moon is Illuminated
Dec 16
Waxing Crescent
Dec 19
First Quarter
Dec 28
Full
Jan 4
Last Quarter
Jan 11
New

Hourly Weather History & Observations

Time (CST) Temp. Windchill Dew Point Humidity Pressure Visibility Wind Dir Wind Speed Gust Speed Precip Events Conditions
12:53 AM 42.1 °F 39.2 °F 37.9 °F 85% 29.72 in 10.0 mi NW 4.6 mph - N/A   Clear
1:53 AM 39.0 °F 36.8 °F 37.0 °F 93% 29.72 in 7.0 mi WNW 3.5 mph - N/A   Clear
2:53 AM 37.9 °F 35.5 °F 36.0 °F 93% 29.74 in 4.0 mi West 3.5 mph - N/A   Clear
3:53 AM 37.0 °F - 36.0 °F 96% 29.74 in 3.0 mi Calm Calm - N/A   Clear
4:05 AM 37.4 °F 34.9 °F 35.6 °F 93% 29.73 in 2.5 mi West 3.5 mph - N/A   Clear
4:13 AM 35.6 °F - 35.6 °F 100% 29.73 in 1.0 mi Calm Calm - N/A   Clear
4:16 AM 35.6 °F - 35.6 °F 100% 29.73 in 0.8 mi Calm Calm - N/A   Mist
4:32 AM 35.6 °F 32.8 °F 35.6 °F 100% 29.73 in 1.2 mi WNW 3.5 mph - N/A   Partly Cloudy
4:48 AM 35.6 °F 32.8 °F 33.8 °F 93% 29.73 in 2.0 mi WNW 3.5 mph - N/A   Clear
4:53 AM 36.0 °F 32.1 °F 34.0 °F 93% 29.74 in 2.5 mi NW 4.6 mph - N/A   Clear
5:11 AM 35.6 °F - 33.8 °F 93% 29.73 in 4.0 mi Calm Calm - N/A   Clear
5:26 AM 35.6 °F - 33.8 °F 93% 29.73 in 1.8 mi Calm Calm - N/A   Clear
5:40 AM 35.6 °F - 33.8 °F 93% 29.73 in 3.0 mi Calm Calm - N/A   Clear
5:53 AM 35.1 °F 31.0 °F 34.0 °F 96% 29.74 in 3.0 mi NNW 4.6 mph - N/A   Clear
6:04 AM 35.6 °F 32.8 °F 33.8 °F 93% 29.73 in 1.8 mi NW 3.5 mph - N/A   Clear
6:12 AM 33.8 °F 30.8 °F 33.8 °F 100% 29.73 in 0.5 mi NW 3.5 mph - N/A Fog Fog
6:26 AM 33.8 °F 27.0 °F 32.0 °F 93% 29.73 in 2.0 mi North 8.1 mph - N/A   Mostly Cloudy
6:33 AM 33.8 °F 27.0 °F 33.8 °F 100% 29.73 in 1.8 mi North 8.1 mph - N/A   Mostly Cloudy
6:44 AM 35.6 °F 31.7 °F 33.8 °F 93% 29.74 in 0.2 mi North 4.6 mph - N/A Fog Fog
6:53 AM 35.1 °F 30.1 °F 34.0 °F 96% 29.76 in 0.2 mi North 5.8 mph - N/A Fog Fog
7:53 AM 35.1 °F 30.1 °F 33.1 °F 92% 29.76 in 0.2 mi NE 5.8 mph - N/A Fog Fog
8:53 AM 35.1 °F 32.2 °F 35.1 °F 100% 29.78 in 0.2 mi NNE 3.5 mph - N/A Fog Fog
9:53 AM 36.0 °F 32.1 °F 35.1 °F 97% 29.77 in 0.2 mi NNE 4.6 mph - N/A Fog Fog
10:53 AM 37.0 °F 33.3 °F 36.0 °F 96% 29.76 in 0.2 mi North 4.6 mph - N/A Fog Fog
11:53 AM 37.9 °F 32.7 °F 37.0 °F 97% 29.74 in 0.2 mi NNW 6.9 mph - N/A Fog Fog
12:19 PM 37.4 °F 32.1 °F 35.6 °F 93% 29.71 in 0.5 mi North 6.9 mph - N/A Fog Fog
12:53 PM 37.9 °F 34.4 °F 37.0 °F 97% 29.71 in 0.8 mi NNW 4.6 mph - N/A   Overcast
1:00 PM 37.4 °F 31.4 °F 35.6 °F 93% 29.69 in 1.0 mi NNW 8.1 mph - N/A   Overcast
1:53 PM 37.9 °F 33.5 °F 36.0 °F 93% 29.71 in 2.0 mi North 5.8 mph - N/A   Overcast
2:14 PM 37.4 °F 32.1 °F 35.6 °F 93% 29.70 in 2.5 mi NNW 6.9 mph - N/A   Overcast
2:24 PM 37.4 °F 34.9 °F 35.6 °F 93% 29.70 in 3.0 mi NNW 3.5 mph - N/A   Overcast
2:38 PM 37.4 °F 32.1 °F 35.6 °F 93% 29.69 in 2.5 mi NNW 6.9 mph - N/A   Overcast
2:53 PM 37.9 °F 34.4 °F 36.0 °F 93% 29.72 in 2.5 mi NNW 4.6 mph - N/A   Overcast
3:00 PM 37.4 °F 32.8 °F 35.6 °F 93% 29.69 in 3.0 mi NNW 5.8 mph - N/A   Overcast
3:53 PM 37.9 °F 32.1 °F 36.0 °F 93% 29.72 in 3.0 mi North 8.1 mph - N/A   Overcast
4:53 PM 37.9 °F 32.7 °F 35.1 °F 89% 29.74 in 4.0 mi NE 6.9 mph - N/A   Overcast
5:23 PM 37.4 °F 34.9 °F 35.6 °F 93% 29.74 in 5.0 mi NNW 3.5 mph - N/A   Overcast
5:53 PM 37.9 °F 34.4 °F 35.1 °F 89% 29.77 in 5.0 mi NNW 4.6 mph - N/A   Overcast
6:53 PM 37.0 °F 32.4 °F 35.1 °F 93% 29.79 in 5.0 mi NNW 5.8 mph - N/A   Overcast
7:53 PM 37.0 °F 31.0 °F 34.0 °F 89% 29.80 in 4.0 mi NNW 8.1 mph - N/A   Overcast
9:53 PM 36.0 °F 29.6 °F 34.0 °F 93% 29.79 in 5.0 mi North 8.1 mph - N/A   Overcast
10:05 PM 35.6 °F 29.9 °F 33.8 °F 93% 29.77 in 4.0 mi North 6.9 mph - N/A   Overcast
10:18 PM 35.6 °F 30.7 °F 33.8 °F 93% 29.77 in 6.0 mi North 5.8 mph - N/A   Overcast
10:53 PM 36.0 °F 32.1 °F 33.1 °F 89% 29.80 in 6.0 mi North 4.6 mph - N/A   Overcast
11:53 PM 36.0 °F - 34.0 °F 93% 29.80 in 5.0 mi Calm Calm - N/A   Overcast